STARLINK-4730 (53794 NORAD) Tracking and Keplerian Element Data

This shows tracking and keplerian element data for the satellite.

Feedback or suggestion? Click here.




ElementValue
Catalog53794
NameSTARLINK-4730
Epoch Orbit1107
Epoch Day325.33334491
Epoch Year2022
RAAN280.4513
Inclination53.2168
Eccentricity0.0001571
Argument of Perigee48.7085
Mean Anonmoly270.4894
Mean Motion15.11408639
Decay Rate-0.01148147
L11 53794U 22111X 22325.33334491 -.01148147 00000+0 -72992-1 0 9996
L22 53794 53.2168 280.4513 0001571 48.7085 270.4894 15.11408639 11075



Live tracking and technical data element details for STARLINK-4730 (NORAD 53794). STARLINK-4730 can be tracked NOW for your location showing map with azimuth and elevation plus other details from your city location.







IsCatalogInMostPopularTable: catalog: 53794, numindb: -1

Insert: records affected: 1


GetName: 53794 STARLINK-4730

Hit Count: inserted at: Thu, 08 Dec 2022 10:17:01 GMT